Simultaneous Nadir Overpasses (SNOs) Predictions

Prediction of SNOs between GOES-14 and NOAA-20 Satellite Orbit:

Table of predicted SNOs for the next 14.0 days since TLE Epoch: 8/12/2023
Index Date Time (GOES-14) GOES-14 Lat,Lon NOAA-20 Lat,Lon Distance(km) Time Diff (sec)
1 08/12/2023 20:41:05 0.43,-108.55 0.25,-109.25 80.76 80
2 08/13/2023 20:25:01 0.42,-108.55 1.29,-104.73 435.77 80
3 08/15/2023 08:44:09 -0.45,-108.64 -0.16,-110.01 155.65 80
4 08/16/2023 08:28:04 -0.44,-108.64 -1.14,-105.47 360.80 80
5 08/17/2023 20:47:20 0.47,-108.54 -0.01,-110.78 254.75 80
6 08/18/2023 20:31:15 0.46,-108.54 0.97,-106.24 262.03 80
7 08/20/2023 08:50:23 -0.48,-108.64 0.16,-111.53 328.56 80
8 08/21/2023 08:34:17 -0.47,-108.64 -0.83,-106.99 187.98 80
9 08/22/2023 20:53:33 0.49,-108.54 -0.37,-112.29 427.96 80
10 08/23/2023 20:37:28 0.48,-108.54 0.67,-107.76 88.39 80
